User: anonymous   Login
Location: Allos
(44.2333°N, 6.6333°E)
Time: 04:47:48
(UTC+00:00)
Language:

D-STAR ONE SPARROW - Orbit

View from above orbital plane
View from above orbital plane
View from above satellite
View from above satellite

Ground track
Ground track

The orbit data is extracted from the following two-line orbital elements,

1 43881U 18111F   21165.27946595  .00000645  00000-0  61143-4 0  9992
2 43881  97.6878  73.1978 0013873 110.0885 250.1831 14.96923998134616
Epoch (UTC): 14 June 2021 06:42:25
Eccentricity: 0.0013873
inclination: 97.6878°
perigee height: 567 km
apogee height: 586 km
right ascension of ascending node: 73.1978°
argument of perigee: 110.0885°
revolutions per day: 14.96923998
mean anomaly at epoch: 250.1831°
orbit number at epoch: 13461

The dashed part of the orbit path shows where the satellite is in the earth's shadow,  

DLR